[[{"header":{"parameterUnit":"m.s-1","parameterCategory":2,"la1":30.2991,"la2":30.254,"lo1":-89.0895,"lo2":-89.0444,"dy":0.0017,"dx":0.0017,"nx":28,"ny":28,"refTime":"2023-04-25T21:00:00:Z","depth":"0","parameterNumber":2,"parameterNumberName":"U-component_of_CURRENTS"},"data":[0,0,0,0,0,0,0,0,0,0,0,0,0,0,0,0,0,0,0,0,0,0,0,0,0,0,0,0,0,0,0,0,0,0,0,0,0,0,0,0,0,0,0,0,0,0,0,0,0,0,0,0,0,0,0,0,0,0,0.0478,0.048,0,0.0711,0.0714,0.0717,0.0726,0.0723,0.072,0.0717,0.0818,0.0823,0.0829,0,0,0,0,0,0,0,0,0,0,0,0,0,0.0211,0.0215,0.0478,0.048,0.0483,0.0711,0.0714,0.0718,0.0727,0.0723,0.0719,0.0715,0.0816,0.0822,0.0829,0,0,0,0,0,0,0,0,0,0,0,0,0,0.0379,0.0217,0.0477,0.0511,0.0515,0.071,0.0715,0.0719,0.0728,0.0723,0.0718,0.0713,0.0813,0.0822,0.083,0.0982,0,0,0.0857,0.086,0,0,0,0,0,0,0,0,0.0369,0.0389,0.0503,0.0509,0.0514,0.068,0.0657,0.0799,0.0729,0.0653,0.0716,0.0711,0.0759,0.0772,0.0837,0.0987,0.0992,0.0857,0.0863,0.0866,0.0869,0,0,0,0,0,0,0,0.0357,0.038,0.0576,0.0506,0.0513,0.0572,0.0589,0.0686,0.0733,0.0659,0.0659,0.0678,0.0761,0.0829,0.0839,0.0993,0.0857,0.0865,0.087,0.0874,0.1329,0.1336,0,0,0,0,0,0,0.0315,0.0369,0.0568,0.0582,0.0422,0.058,0.0599,0.0636,0.0735,0.0744,0.0682,0.0677,0.0816,0.0829,0.0842,0.1032,0.0866,0.0874,0.0879,0.1322,0.133,0.1338,0,0,0,0,0,0,0.0309,0.0332,0.0559,0.0475,0.0507,0.0587,0.063,0.0643,0.0719,0.0752,0.0759,0.0742,0.0813,0.083,0.0991,0.1034,0.0878,0.0886,0.1314,0.1325,0.1334,0.1408,0,0,0,0,0,0,0.0301,0.0329,0.0357,0.0473,0.051,0.0705,0.0635,0.0651,0.0735,0.0732,0.0808,0.0811,0.081,0.0979,0.1,0.1043,0.0893,0.1305,0.1319,0.1331,0.1397,0.142,0.1439,0,0,0,0,0,0.0291,0.0359,0.0358,0.0382,0.0542,0.0709,0.0738,0.0779,0.0742,0.0821,0.0884,0.0809,0.1073,0.0994,0.1016,0.1062,0.1299,0.1315,0.133,0.1387,0.1415,0.1439,0,0,0,0,0,0,0.0293,0.0369,0.037,0.0465,0.0583,0.0708,0.0788,0.0809,0.0929,0.0921,0.0926,0.0942,0.1091,0.111,0.1021,0.1244,0.1165,0.1185,0.1201,0.1227,0.1248,0.1217,0.09,0,0,0,0,0,0.0298,0.0354,0.0457,0.0548,0.0604,0.0701,0.0773,0.0812,0.0919,0.0965,0.1008,0.1081,0.1184,0.1226,0.1322,0.1464,0.1451,0.151,0.1531,0.1547,0.1549,0.1611,0.1635,0.1389,0.1389,0.1389,0,0,0.0327,0.0379,0.0413,0.055,0.0642,0.0775,0.0737,0.0877,0.097,0.0961,0.111,0.117,0.125,0.14,0.1464,0.1407,0.1618,0.1567,0.158,0.1572,0.163,0.1652,0.1672,0.14,0.1398,0.1396,0,0,0.0453,0.0467,0.0571,0.0659,0.0793,0.0858,0.09,0.1038,0.1076,0.1241,0.1253,0.1362,0.1505,0.1571,0.162,0.1836,0.174,0.185,0.1909,0.1971,0.1989,0.2004,0.2012,0.2027,0.1841,0.1842,0.1842,0,0.0486,0.0613,0.0642,0.0771,0.0834,0.0896,0.1031,0.1121,0.1286,0.1323,0.1293,0.1526,0.1586,0.1756,0.1823,0.1872,0.1867,0.1783,0.1987,0.2003,0.2017,0.2021,0.2037,0.1847,0.1847,0.1846,0.1845,0,0.0708,0.0786,0.0869,0.1014,0.1097,0.1233,0.1317,0.1404,0.1425,0.1487,0.1638,0.1739,0.1848,0.1896,0.1923,0.2071,0.2021,0.2006,0.189,0.2044,0.2042,0.2056,0.1855,0.1853,0.1851,0.185,0,0,0.0845,0.0984,0.1015,0.1057,0.1211,0.1298,0.1437,0.1571,0.1635,0.1747,0.1833,0.2016,0.201,0.2073,0.2112,0.217,0.2274,0.2125,0.2125,0.2074,0.2364,0.2352,0.2365,0.227,0.2274,0.2277,0.2315,0,0.1017,0.1221,0.1252,0.1425,0.1523,0.1543,0.1656,0.1755,0.1815,0.1919,0.1984,0.2104,0.2094,0.2136,0.2205,0.2271,0.2319,0.2262,0.2275,0.2275,0.2197,0.2386,0.2413,0.2453,0.2329,0.2331,0.2333,0,0.1251,0.132,0.1496,0.1545,0.159,0.1682,0.1774,0.1884,0.2015,0.2047,0.214,0.2188,0.2324,0.2275,0.2412,0.2364,0.2378,0.24,0.2401,0.2369,0.2293,0.2291,0.2484,0.2436,0.2355,0.2353,0.2352,0,0.1335,0.1484,0.1586,0.1623,0.1724,0.1753,0.1805,0.1922,0.1976,0.212,0.2153,0.2308,0.236,0.2431,0.2477,0.2445,0.2587,0.2546,0.2542,0.2537,0.2557,0.2549,0.2657,0.2638,0.2638,0.2638,0.2637,0,0.1517,0.1593,0.1607,0.1666,0.1728,0.1778,0.186,0.193,0.203,0.2101,0.2203,0.2272,0.2397,0.248,0.2516,0.2582,0.2615,0.259,0.2577,0.2588,0.2583,0.2535,0.2493,0.2639,0.2639,0.2638,0.2638,0,0.1644,0.1684,0.1746,0.1777,0.1777,0.1811,0.1836,0.1889,0.1984,0.2073,0.2109,0.2258,0.2377,0.2479,0.2606,0.2616,0.2631,0.2693,0.2675,0.2661,0.2608,0.2569,0.2442,0.238,0.271,0.2711,0.2711,0,0.1748,0.1787,0.1775,0.1756,0.1761,0.1784,0.1797,0.1868,0.1909,0.205,0.2088,0.2237,0.2344,0.2527,0.2644,0.2742,0.2625,0.2763,0.2739,0.2651,0.2598,0.2371,0.2311,0.2786,0.2787,0.2787,0.2788,0,0.1832,0.1798,0.181,0.1775,0.1749,0.1742,0.1756,0.1778,0.1869,0.1939,0.2041,0.2142,0.2369,0.2531,0.2683,0.2744,0.2657,0.2778,0.2728,0.2721,0.2445,0.2362,0.2659,0.2795,0.2794,0.2794,0.2793,0.2793,0.1816,0.1807,0.1766,0.174,0.1707,0.1677,0.1662,0.1686,0.1734,0.181,0.1939,0.2058,0.238,0.2638,0.2682,0.2807,0.2669,0.2785,0.2756,0.2537,0.246,0.2745,0.2839,0.2838,0.2838,0.2838,0.2837,0,0.1751,0.1734,0.1713,0.1648,0.1589,0.1605,0.1608,0.1583,0.1597,0.1709,0.1783,0.2073,0.2328,0.2568,0.284,0.281,0.2648,0.2755,0.2496,0.2451,0.2788,0.2782,0.2821,0.2821,0.2821,0.2821,0.2821,0.2821,0.1696,0.1653,0.1652,0.1529,0.1482,0.1406,0.1395,0.1388,0.1454,0.154,0.1671,0.1805,0.22,0.2608,0.278,0.2748,0.2536,0.2438,0.2333,0.2664,0.2664,0.2664,0.265,0.2661,0.266,0.1926,0.1921,0.1918]},{"header":{"parameterUnit":"m.s-1","parameterCategory":2,"la1":30.2991,"la2":30.254,"lo1":-89.0895,"lo2":-89.0444,"dy":0.0017,"dx":0.0017,"nx":28,"ny":28,"refTime":"2023-04-25T21:00:00:Z","depth":"0","parameterNumber":3,"parameterNumberName":"V-component_of_CURRENTS"},"data":[0,0,0,0,0,0,0,0,0,0,0,0,0,0,0,0,0,0,0,0,0,0,0,0,0,0,0,0,0,0,0,0,0,0,0,0,0,0,0,0,0,0,0,0,0,0,0,0,0,0,0,0,0,0,0,0,0,0,0.0924,0.0928,0,0.1244,0.1247,0.125,0.1309,0.1308,0.1306,0.1304,0.126,0.126,0.126,0,0,0,0,0,0,0,0,0,0,0,0,0,0.0509,0.0514,0.0924,0.0929,0.0934,0.1244,0.1247,0.1251,0.131,0.1307,0.1305,0.1304,0.1259,0.126,0.126,0,0,0,0,0,0,0,0,0,0,0,0,0,0.0735,0.0516,0.0923,0.1008,0.1019,0.1243,0.1248,0.1252,0.131,0.1307,0.1305,0.1303,0.1259,0.126,0.126,0.1314,0,0,0.1262,0.1262,0,0,0,0,0,0,0,0,0.0722,0.0749,0.0991,0.1003,0.1016,0.1243,0.1086,0.1258,0.1311,0.1189,0.1304,0.1301,0.1229,0.1232,0.1288,0.1312,0.131,0.1262,0.1262,0.1263,0.1263,0,0,0,0,0,0,0,0.0706,0.0736,0.104,0.0996,0.1012,0.1081,0.1108,0.112,0.1204,0.1199,0.1207,0.126,0.1231,0.1288,0.1287,0.1309,0.1262,0.1263,0.1263,0.1263,0.1352,0.1354,0,0,0,0,0,0,0.0683,0.0721,0.103,0.1051,0.0871,0.1091,0.112,0.1164,0.1212,0.1223,0.1262,0.1262,0.1288,0.1286,0.1285,0.1368,0.1263,0.1263,0.1264,0.135,0.1352,0.1354,0,0,0,0,0,0,0.0673,0.0707,0.1018,0.0901,0.0947,0.11,0.115,0.1172,0.1253,0.1266,0.1266,0.1321,0.1286,0.1284,0.1354,0.1365,0.1263,0.1264,0.1347,0.135,0.1353,0.1521,0,0,0,0,0,0,0.0659,0.0701,0.0745,0.09,0.0953,0.1195,0.1154,0.1181,0.1293,0.1296,0.1317,0.131,0.1284,0.1354,0.1354,0.1364,0.1264,0.1345,0.1349,0.1352,0.1513,0.153,0.1544,0,0,0,0,0,0.0643,0.0702,0.0745,0.0784,0.1001,0.1201,0.1236,0.1327,0.1298,0.1377,0.1388,0.131,0.1374,0.136,0.1359,0.1368,0.1343,0.1347,0.1352,0.1506,0.1526,0.1543,0,0,0,0,0,0,0.0576,0.072,0.0768,0.0878,0.1052,0.1215,0.131,0.135,0.1431,0.1422,0.1382,0.1381,0.1436,0.1391,0.1374,0.14,0.1327,0.1332,0.1444,0.1462,0.1477,0.1448,0.1265,0,0,0,0,0,0.0579,0.0645,0.0828,0.0934,0.102,0.1167,0.126,0.1333,0.1424,0.146,0.1463,0.1449,0.1456,0.1454,0.1466,0.1505,0.1407,0.1494,0.1509,0.1523,0.1497,0.1369,0.137,0.1369,0.1369,0.1369,0,0,0.0584,0.0682,0.0721,0.0924,0.1059,0.1213,0.1216,0.1391,0.1468,0.1435,0.1519,0.1527,0.1487,0.154,0.1551,0.15,0.1487,0.1528,0.154,0.1506,0.1374,0.1373,0.1373,0.1372,0.1372,0.1371,0,0,0.0664,0.0727,0.0832,0.097,0.1192,0.1279,0.1332,0.1512,0.1539,0.166,0.1621,0.1656,0.1679,0.1657,0.1638,0.1742,0.1588,0.1718,0.1756,0.1635,0.1633,0.1629,0.1567,0.1556,0.1705,0.1705,0.1705,0,0.067,0.0833,0.0909,0.1071,0.1187,0.1302,0.1466,0.1525,0.1688,0.168,0.1699,0.1734,0.1727,0.1727,0.1769,0.1773,0.1682,0.1697,0.1652,0.1646,0.1639,0.1575,0.1561,0.1714,0.1713,0.1712,0.1711,0,0.0861,0.0989,0.1078,0.1281,0.1405,0.1577,0.1678,0.1741,0.1771,0.1805,0.1843,0.1879,0.1867,0.1879,0.1864,0.1813,0.1763,0.1704,0.1602,0.1649,0.158,0.1562,0.1726,0.1723,0.172,0.1718,0,0,0.089,0.1148,0.1187,0.1297,0.1527,0.1644,0.1728,0.1832,0.1833,0.1931,0.1928,0.1984,0.1964,0.1941,0.1924,0.1843,0.1776,0.1754,0.1743,0.1687,0.1524,0.1502,0.1479,0.1682,0.1678,0.1675,0.1516,0,0.1045,0.1308,0.14,0.1637,0.179,0.1852,0.1906,0.1968,0.1988,0.1994,0.1968,0.1993,0.1987,0.2005,0.1922,0.1819,0.1724,0.1825,0.1488,0.1479,0.1446,0.1456,0.1492,0.1351,0.1498,0.1495,0.1492,0,0.1232,0.1379,0.1614,0.1777,0.1844,0.1954,0.2016,0.2085,0.2056,0.2056,0.2045,0.2025,0.1984,0.1956,0.1763,0.1815,0.1667,0.1578,0.1567,0.1457,0.142,0.1313,0.1311,0.1201,0.1463,0.1466,0.1468,0,0.1243,0.1517,0.1676,0.1761,0.1961,0.2002,0.2074,0.2091,0.2108,0.2085,0.2104,0.2026,0.2021,0.1826,0.1686,0.1689,0.1437,0.1408,0.1248,0.1247,0.1165,0.1162,0.0999,0.1197,0.1197,0.1198,0.1198,0,0.1378,0.1513,0.168,0.1787,0.1901,0.2021,0.2098,0.2116,0.2147,0.2162,0.2132,0.2147,0.1972,0.1836,0.1659,0.1421,0.1399,0.1242,0.1184,0.1236,0.1241,0.1047,0.0986,0.1192,0.1193,0.1194,0.1195,0,0.1409,0.1531,0.1703,0.1883,0.1926,0.1996,0.2134,0.2174,0.2204,0.2226,0.2232,0.2201,0.2046,0.186,0.1569,0.1412,0.1088,0.1073,0.119,0.1148,0.0912,0.086,0.0552,0.0473,0.0875,0.0873,0.0872,0,0.1478,0.1568,0.173,0.1793,0.1887,0.2003,0.2078,0.2171,0.2222,0.2266,0.2276,0.2181,0.2124,0.1754,0.1446,0.1122,0.0991,0.0937,0.0943,0.0888,0.0786,0.0734,0.0688,0.093,0.0929,0.0929,0.0928,0,0.1572,0.1584,0.1686,0.1797,0.1895,0.2015,0.2133,0.2175,0.2267,0.2303,0.232,0.2293,0.2015,0.1736,0.1338,0.1126,0.0869,0.091,0.0787,0.0754,0.0743,0.0647,0.1094,0.0921,0.0922,0.0922,0.0923,0.0923,0.1571,0.1616,0.1693,0.1785,0.1891,0.1996,0.2064,0.2184,0.2254,0.2306,0.2327,0.2301,0.2021,0.1507,0.121,0.0769,0.0745,0.0656,0.0585,0.0528,0.0478,0.0943,0.0742,0.0741,0.0741,0.0741,0.0741,0,0.1556,0.1597,0.1692,0.1793,0.1885,0.1959,0.208,0.2138,0.2202,0.2287,0.2326,0.2211,0.1795,0.1398,0.0818,0.0514,0.0408,0.0371,0.0317,0.0271,0.0627,0.0661,0.0511,0.0511,0.0511,0.0511,0.0512,0.0512,0.1534,0.1578,0.1622,0.1743,0.1831,0.1932,0.198,0.2068,0.2137,0.2216,0.2246,0.231,0.2093,0.1097,0.0424,0.0272,0.005,0.0007,-0.0132,0.0158,0.0181,0.0203,0.022,-0.002,-0.0021,-0.0431,-0.0435,-0.0437]}],[{"header":{"parameterUnit":"m.s-1","parameterCategory":2,"la1":30.2991,"la2":30.254,"lo1":-89.0895,"lo2":-89.0444,"dy":0.0017,"dx":0.0017,"nx":28,"ny":28,"refTime":"2023-04-25T21:00:00:Z","depth":"2","parameterNumber":2,"parameterNumberName":"U-component_of_CURRENTS"},"data":[0,0,0,0,0,0,0,0,0,0,0,0,0,0,0,0,0,0,0,0,0,0,0,0,0,0,0,0,0,0,0,0,0,0,0,0,0,0,0,0,0,0,0,0,0,0,0,0,0,0,0,0,0,0,0,0,0,0,0.0324,0.0321,0,0.0196,0.0195,0.0195,0.0211,0.0211,0.0212,0.0213,0.0273,0.0274,0.0275,0,0,0,0,0,0,0,0,0,0,0,0,0,0.0343,0.0345,0.0324,0.0321,0.0318,0.0196,0.0195,0.0195,0.0211,0.0212,0.0212,0.0213,0.0273,0.0274,0.0275,0,0,0,0,0,0,0,0,0,0,0,0,0,0.0301,0.0346,0.0325,0.0301,0.0296,0.0196,0.0195,0.0195,0.021,0.0212,0.0213,0.0214,0.0273,0.0274,0.0275,0.0261,0,0,0.0279,0.028,0,0,0,0,0,0,0,0,0.0304,0.0302,0.0307,0.0302,0.0297,0.0208,0.0223,0.0221,0.021,0.0258,0.0213,0.0214,0.0259,0.0261,0.0252,0.0264,0.0266,0.0279,0.028,0.0281,0.0281,0,0,0,0,0,0,0,0.0307,0.0306,0.0288,0.0303,0.0297,0.0212,0.0212,0.0222,0.0268,0.0254,0.0251,0.0214,0.0259,0.0251,0.0254,0.0267,0.0279,0.0281,0.0281,0.0282,0.0339,0.034,0,0,0,0,0,0,0.0305,0.0311,0.0292,0.0283,0.0286,0.0211,0.0211,0.0247,0.0264,0.0262,0.0213,0.0215,0.0248,0.0252,0.0256,0.0317,0.0281,0.0282,0.0283,0.0339,0.0339,0.034,0,0,0,0,0,0,0.0308,0.0308,0.0297,0.0277,0.0268,0.021,0.025,0.0243,0.0239,0.0228,0.0233,0.0213,0.0249,0.0255,0.0253,0.0317,0.0283,0.0284,0.0338,0.0339,0.034,0.039,0,0,0,0,0,0,0.031,0.0312,0.0341,0.028,0.0268,0.024,0.0247,0.024,0.0206,0.0209,0.023,0.0236,0.025,0.0251,0.0254,0.0318,0.0285,0.0337,0.0338,0.034,0.0388,0.0393,0.0398,0,0,0,0,0,0.0313,0.0359,0.0346,0.0341,0.0313,0.0237,0.0226,0.0194,0.0205,0.0199,0.0204,0.0236,0.0264,0.025,0.0255,0.0322,0.0336,0.0338,0.0339,0.0386,0.0392,0.0398,0,0,0,0,0,0,0.0392,0.0361,0.0346,0.0386,0.0307,0.0235,0.0235,0.0194,0.0191,0.0209,0.0218,0.0223,0.0252,0.0262,0.0247,0.034,0.0317,0.0319,0.0351,0.0357,0.0362,0.0399,0.0286,0,0,0,0,0,0.0415,0.0455,0.0368,0.04,0.0374,0.0302,0.027,0.023,0.0202,0.0202,0.0208,0.0233,0.0259,0.0285,0.0294,0.0332,0.0348,0.0384,0.0389,0.0393,0.0425,0.0453,0.0464,0.0346,0.0346,0.0345,0,0,0.0448,0.0439,0.0458,0.0416,0.0381,0.0336,0.0294,0.0247,0.0232,0.0211,0.0235,0.0235,0.0263,0.0306,0.0326,0.0329,0.0435,0.0395,0.0399,0.043,0.0456,0.0467,0.0478,0.0347,0.0346,0.0346,0,0,0.0496,0.0537,0.0551,0.0495,0.041,0.0371,0.0354,0.0273,0.0276,0.0253,0.0257,0.0277,0.0308,0.0343,0.037,0.0404,0.0442,0.0427,0.0509,0.0534,0.0545,0.0554,0.0593,0.0605,0.0452,0.0452,0.0452,0,0.0531,0.0551,0.0531,0.05,0.0476,0.0393,0.0369,0.0346,0.027,0.03,0.0275,0.0333,0.0337,0.0422,0.0441,0.0422,0.0446,0.0486,0.0543,0.0552,0.0561,0.0598,0.0611,0.0455,0.0454,0.0454,0.0454,0,0.0555,0.0555,0.0565,0.0533,0.0503,0.0473,0.0415,0.041,0.0406,0.0385,0.0439,0.0423,0.0483,0.0482,0.0479,0.0566,0.0565,0.0527,0.0531,0.0576,0.0612,0.0625,0.0458,0.0457,0.0457,0.0456,0,0,0.0685,0.0598,0.0601,0.0585,0.0524,0.0505,0.052,0.0518,0.0555,0.0521,0.0584,0.0618,0.0626,0.0654,0.0649,0.0667,0.0733,0.0643,0.0643,0.069,0.0814,0.085,0.0867,0.0709,0.0711,0.0713,0.0816,0,0.0709,0.066,0.0632,0.062,0.0598,0.0574,0.0604,0.06,0.0609,0.0642,0.0665,0.0711,0.0692,0.0725,0.0749,0.0716,0.077,0.071,0.0758,0.0761,0.0792,0.0884,0.0728,0.081,0.0828,0.083,0.0832,0,0.0743,0.071,0.0688,0.0676,0.0679,0.0687,0.0763,0.0764,0.0801,0.0815,0.0874,0.0864,0.0923,0.0865,0.0916,0.0884,0.089,0.0854,0.0856,0.0889,0.0821,0.0767,0.0833,0.0853,0.0851,0.085,0.0848,0,0.083,0.0772,0.0778,0.0761,0.0725,0.0784,0.0809,0.0846,0.0871,0.0939,0.0954,0.1018,0.104,0.1052,0.1025,0.0982,0.1045,0.0968,0.1019,0.102,0.0901,0.0889,0.1039,0.1038,0.1038,0.1038,0.1038,0,0.0872,0.0881,0.0826,0.0822,0.0892,0.0869,0.0959,0.0988,0.1015,0.1053,0.1072,0.1098,0.1085,0.1106,0.1083,0.1119,0.1121,0.1078,0.1066,0.0914,0.0903,0.094,0.0928,0.1042,0.1041,0.104,0.1039,0,0.0942,0.0893,0.0903,0.0898,0.0919,0.0985,0.1027,0.1061,0.11,0.1141,0.1169,0.1179,0.1231,0.1224,0.1227,0.1203,0.1209,0.123,0.1071,0.1041,0.1151,0.1139,0.1294,0.1297,0.1299,0.1301,0.1302,0,0.0949,0.0947,0.0969,0.0993,0.1005,0.1073,0.1103,0.1126,0.1132,0.1183,0.1189,0.1263,0.1289,0.1334,0.1293,0.1312,0.1323,0.1214,0.1108,0.1213,0.1185,0.117,0.1156,0.0957,0.0956,0.0955,0.0954,0,0.0963,0.0993,0.1005,0.1055,0.1103,0.1121,0.116,0.1159,0.1178,0.12,0.1224,0.1254,0.1303,0.125,0.1306,0.127,0.1192,0.1195,0.1348,0.0931,0.0908,0.0876,0.0871,0.0943,0.0944,0.0945,0.0945,0.0946,0.0993,0.1024,0.1051,0.1112,0.116,0.1162,0.1164,0.1154,0.1161,0.1153,0.1198,0.1195,0.1163,0.116,0.1148,0.1137,0.1192,0.1111,0.1108,0.1108,0.1066,0.1049,0.1103,0.1105,0.1107,0.1108,0.111,0,0.0999,0.1042,0.1085,0.1134,0.1165,0.121,0.1185,0.1127,0.1108,0.1102,0.1112,0.0973,0.0963,0.0987,0.0941,0.0947,0.0853,0.0929,0.0784,0.0796,0.0806,0.0742,0.0697,0.0696,0.0695,0.0695,0,0,0.0998,0.1038,0.1058,0.1108,0.1169,0.1175,0.1159,0.1068,0.1006,0.0919,0.0895,0.0907,0.0924,0.0789,0.0767,0.0752,0.0759,0.0709,0.1028,0.0866,0.0875,0.0892,0.0807,0,0,0,0,0]},{"header":{"parameterUnit":"m.s-1","parameterCategory":2,"la1":30.2991,"la2":30.254,"lo1":-89.0895,"lo2":-89.0444,"dy":0.0017,"dx":0.0017,"nx":28,"ny":28,"refTime":"2023-04-25T21:00:00:Z","depth":"2","parameterNumber":3,"parameterNumberName":"V-component_of_CURRENTS"},"data":[0,0,0,0,0,0,0,0,0,0,0,0,0,0,0,0,0,0,0,0,0,0,0,0,0,0,0,0,0,0,0,0,0,0,0,0,0,0,0,0,0,0,0,0,0,0,0,0,0,0,0,0,0,0,0,0,0,0,-0.0489,-0.0493,0,-0.0643,-0.0642,-0.0641,-0.0554,-0.0553,-0.0551,-0.055,-0.0577,-0.0579,-0.0581,0,0,0,0,0,0,0,0,0,0,0,0,0,-0.021,-0.0213,-0.0488,-0.0493,-0.0498,-0.0643,-0.0642,-0.0641,-0.0554,-0.0553,-0.0551,-0.0549,-0.0577,-0.0579,-0.0581,0,0,0,0,0,0,0,0,0,0,0,0,0,-0.0313,-0.0213,-0.0488,-0.0496,-0.0501,-0.0643,-0.0642,-0.064,-0.0554,-0.0552,-0.0551,-0.0549,-0.0576,-0.0579,-0.0582,-0.0639,0,0,-0.059,-0.0592,0,0,0,0,0,0,0,0,-0.0307,-0.0319,-0.049,-0.0497,-0.0502,-0.0606,-0.0556,-0.0645,-0.0555,-0.05,-0.055,-0.0548,-0.0598,-0.0599,-0.0587,-0.064,-0.0641,-0.0591,-0.0592,-0.0594,-0.0594,0,0,0,0,0,0,0,-0.03,-0.0313,-0.0516,-0.0497,-0.0504,-0.0527,-0.0534,-0.057,-0.053,-0.0504,-0.0507,-0.0576,-0.0595,-0.0585,-0.0588,-0.0641,-0.0591,-0.0593,-0.0595,-0.0596,-0.0717,-0.0718,0,0,0,0,0,0,-0.0345,-0.0306,-0.0512,-0.0524,-0.0435,-0.0535,-0.0543,-0.0548,-0.0533,-0.0539,-0.0578,-0.0573,-0.0581,-0.0584,-0.0589,-0.062,-0.0594,-0.0596,-0.0598,-0.0715,-0.0717,-0.0719,0,0,0,0,0,0,-0.0337,-0.0359,-0.0506,-0.0448,-0.0473,-0.0545,-0.055,-0.0553,-0.0535,-0.0596,-0.0592,-0.0562,-0.0579,-0.0584,-0.0636,-0.0622,-0.0598,-0.06,-0.0714,-0.0716,-0.0718,-0.0707,0,0,0,0,0,0,-0.0326,-0.0352,-0.038,-0.0449,-0.0479,-0.0602,-0.0556,-0.0558,-0.0599,-0.059,-0.0582,-0.0583,-0.0578,-0.0632,-0.0639,-0.0625,-0.0603,-0.0712,-0.0715,-0.0717,-0.0705,-0.0708,-0.0711,0,0,0,0,0,-0.0314,-0.036,-0.0378,-0.0407,-0.0508,-0.0608,-0.062,-0.0644,-0.06,-0.0609,-0.0608,-0.0582,-0.0652,-0.0637,-0.0644,-0.0631,-0.071,-0.0714,-0.0717,-0.0704,-0.0708,-0.0711,0,0,0,0,0,0,-0.0278,-0.0362,-0.0381,-0.0455,-0.054,-0.0605,-0.0632,-0.0647,-0.0647,-0.0628,-0.0622,-0.0626,-0.0655,-0.0667,-0.0649,-0.0677,-0.0669,-0.0675,-0.0657,-0.0661,-0.0663,-0.0625,-0.0605,0,0,0,0,0,-0.029,-0.0302,-0.0425,-0.0477,-0.0511,-0.0561,-0.0607,-0.0635,-0.0668,-0.066,-0.0664,-0.0667,-0.0679,-0.0689,-0.071,-0.0746,-0.0742,-0.0739,-0.0741,-0.0743,-0.0721,-0.0744,-0.0746,-0.073,-0.073,-0.0729,0,0,-0.0301,-0.0346,-0.0363,-0.0468,-0.0499,-0.0566,-0.0569,-0.0642,-0.0668,-0.0672,-0.0667,-0.0685,-0.0695,-0.072,-0.0733,-0.0724,-0.0748,-0.0748,-0.0749,-0.0725,-0.0747,-0.0748,-0.0749,-0.0732,-0.0731,-0.0731,0,0,-0.0339,-0.0346,-0.0388,-0.0445,-0.0556,-0.0578,-0.0602,-0.0675,-0.0661,-0.0717,-0.0701,-0.0722,-0.0751,-0.0748,-0.0748,-0.079,-0.0766,-0.0792,-0.0768,-0.0792,-0.0792,-0.0793,-0.0788,-0.0788,-0.0788,-0.0788,-0.0788,0,-0.0338,-0.0413,-0.0428,-0.0493,-0.0533,-0.0573,-0.0633,-0.0643,-0.0727,-0.0713,-0.0716,-0.0738,-0.0753,-0.0757,-0.0759,-0.0789,-0.0792,-0.0748,-0.0792,-0.0792,-0.0792,-0.0788,-0.0788,-0.0788,-0.0788,-0.0788,-0.0788,0,-0.0436,-0.0488,-0.0504,-0.0555,-0.0594,-0.065,-0.0694,-0.0701,-0.0683,-0.0705,-0.0714,-0.0749,-0.075,-0.0763,-0.0766,-0.0773,-0.0771,-0.0794,-0.0773,-0.0793,-0.0788,-0.0788,-0.0788,-0.0788,-0.0788,-0.0788,0,0,-0.0439,-0.0541,-0.0553,-0.0566,-0.0622,-0.0654,-0.0656,-0.0678,-0.065,-0.0707,-0.0679,-0.0709,-0.0713,-0.0716,-0.0736,-0.0754,-0.0763,-0.0766,-0.0767,-0.0742,-0.0793,-0.0736,-0.073,-0.0795,-0.0795,-0.0795,-0.0786,0,-0.05,-0.06,-0.0634,-0.0683,-0.0718,-0.0701,-0.0686,-0.0698,-0.0679,-0.0666,-0.0679,-0.0677,-0.0698,-0.0699,-0.0721,-0.0754,-0.0763,-0.0761,-0.0793,-0.0793,-0.0724,-0.0729,-0.0722,-0.0708,-0.0786,-0.0786,-0.0786,0,-0.0618,-0.0643,-0.0711,-0.0699,-0.0703,-0.0717,-0.0637,-0.0651,-0.0628,-0.0611,-0.0612,-0.0624,-0.0641,-0.0669,-0.0713,-0.071,-0.0737,-0.0768,-0.0769,-0.0712,-0.0736,-0.0704,-0.0705,-0.0786,-0.0786,-0.0786,-0.0786,0,-0.0624,-0.0696,-0.0713,-0.0724,-0.0729,-0.0695,-0.0668,-0.0631,-0.0595,-0.058,-0.0551,-0.0585,-0.0582,-0.0641,-0.0677,-0.07,-0.0723,-0.0771,-0.0743,-0.0739,-0.0733,-0.0728,-0.0797,-0.0797,-0.0797,-0.0798,-0.0798,0,-0.0682,-0.0708,-0.071,-0.0722,-0.0678,-0.0682,-0.0619,-0.0594,-0.0555,-0.0495,-0.0524,-0.0479,-0.0574,-0.0591,-0.0656,-0.0675,-0.0704,-0.0719,-0.073,-0.073,-0.0725,-0.0796,-0.0796,-0.0797,-0.0797,-0.0797,-0.0797,0,-0.0726,-0.0749,-0.0757,-0.0722,-0.0699,-0.0662,-0.058,-0.0538,-0.0502,-0.0428,-0.0418,-0.0399,-0.0402,-0.0487,-0.0563,-0.0616,-0.0671,-0.0671,-0.0642,-0.0649,-0.068,-0.068,-0.0651,-0.0649,-0.0647,-0.0646,-0.0645,0,-0.0768,-0.0784,-0.0733,-0.0695,-0.0675,-0.0614,-0.0565,-0.0518,-0.046,-0.0354,-0.0312,-0.0286,-0.0234,-0.0316,-0.0423,-0.0519,-0.0577,-0.0575,-0.0619,-0.0649,-0.0664,-0.0667,-0.0669,-0.0617,-0.0616,-0.0615,-0.0614,0,-0.0797,-0.0772,-0.0742,-0.0674,-0.0613,-0.0545,-0.0466,-0.0409,-0.0329,-0.0244,-0.0116,-0.0067,-0.011,-0.0186,-0.0314,-0.0388,-0.0567,-0.0551,-0.0603,-0.0642,-0.0612,-0.0628,-0.0633,-0.0603,-0.0604,-0.0605,-0.0606,-0.0606,-0.0785,-0.0749,-0.0693,-0.0618,-0.0552,-0.0459,-0.0378,-0.0282,-0.0161,-0.0002,0.0022,0.0104,-0.0043,-0.0173,-0.0282,-0.0409,-0.0431,-0.0521,-0.0528,-0.0535,-0.0518,-0.0486,-0.045,-0.045,-0.045,-0.045,-0.045,0,-0.0752,-0.0701,-0.0635,-0.0526,-0.0434,-0.0423,-0.0295,-0.02,-0.0025,0.0075,0.0197,0.0105,0.0027,-0.0122,-0.0286,-0.0395,-0.0438,-0.0441,-0.0498,-0.0507,-0.0515,-0.0501,-0.0426,-0.0426,-0.0426,-0.0426,0,0,-0.0725,-0.0645,-0.06,-0.0434,-0.0359,-0.0232,-0.0154,-0.0023,0.0062,0.0203,0.0248,0.0238,0.004,-0.0093,-0.025,-0.0329,-0.0394,-0.0345,-0.0357,-0.0416,-0.0422,-0.0555,-0.0541,0,0,0,0,0]}],[{"header":{"parameterUnit":"m.s-1","parameterCategory":2,"la1":30.2991,"la2":30.254,"lo1":-89.0895,"lo2":-89.0444,"dy":0.0017,"dx":0.0017,"nx":28,"ny":28,"refTime":"2023-04-25T21:00:00:Z","depth":"4","parameterNumber":2,"parameterNumberName":"U-component_of_CURRENTS"},"data":[0,0,0,0,0,0,0,0,0,0,0,0,0,0,0,0,0,0,0,0,0,0,0,0,0,0,0,0,0,0,0,0,0,0,0,0,0,0,0,0,0,0,0,0,0,0,0,0,0,0,0,0,0,0,0,0,0,0,0.0038,0.0038,0,0.0112,0.0112,0.0113,0.0172,0.0173,0.0173,0.0174,0.025,0.0251,0.0253,0,0,0,0,0,0,0,0,0,0,0,0,0,0.0038,0.0037,0.0037,0.0038,0.0039,0.0111,0.0112,0.0113,0.0172,0.0173,0.0174,0.0174,0.0249,0.0251,0.0253,0,0,0,0,0,0,0,0,0,0,0,0,0,0.0067,0.0037,0.0037,0.0077,0.0082,0.0111,0.0112,0.0114,0.0172,0.0173,0.0174,0.0175,0.0249,0.0251,0.0253,0.0249,0,0,0.026,0.0261,0,0,0,0,0,0,0,0,0.0065,0.0067,0.0071,0.0075,0.0079,0.0134,0.0141,0.0159,0.0172,0.0138,0.0174,0.0175,0.021,0.0216,0.0228,0.0252,0.0256,0.026,0.0261,0.0262,0.0263,0,0,0,0,0,0,0,0.0063,0.0065,0.0067,0.0071,0.0077,0.0123,0.0127,0.0145,0.0168,0.0141,0.0145,0.0153,0.0213,0.0225,0.023,0.0257,0.026,0.0262,0.0263,0.0264,0.0287,0.0286,0,0,0,0,0,0,0.0048,0.0062,0.0065,0.0069,0.0074,0.0122,0.0127,0.0115,0.0168,0.0177,0.0152,0.0156,0.0221,0.0227,0.0233,0.0252,0.0262,0.0264,0.0266,0.0288,0.0287,0.0286,0,0,0,0,0,0,0.0047,0.0047,0.0062,0.0069,0.0074,0.012,0.0108,0.0116,0.0136,0.0177,0.0186,0.0164,0.0222,0.023,0.0261,0.0254,0.0265,0.0267,0.0289,0.0287,0.0287,0.0276,0,0,0,0,0,0,0.0047,0.0045,0.0034,0.0067,0.0073,0.0085,0.0107,0.0117,0.0139,0.0144,0.0189,0.0197,0.0223,0.0258,0.0263,0.0258,0.0269,0.0289,0.0288,0.0287,0.0278,0.0275,0.0273,0,0,0,0,0,0.0046,0.0028,0.0033,0.0034,0.0054,0.0085,0.0092,0.0129,0.0139,0.0149,0.0182,0.0196,0.0252,0.026,0.0266,0.0261,0.029,0.0288,0.0287,0.0279,0.0276,0.0273,0,0,0,0,0,0,0.0036,0.0033,0.0039,0.0024,0.0054,0.0095,0.0104,0.0126,0.0159,0.0163,0.0199,0.021,0.0233,0.0243,0.0249,0.026,0.0268,0.0267,0.0259,0.0257,0.0254,0.0252,0.0271,0,0,0,0,0,0.0022,-0.0003,0.0025,0.0014,0.0025,0.0062,0.0079,0.0104,0.0136,0.0152,0.0185,0.0209,0.0228,0.0241,0.0263,0.0272,0.0281,0.0267,0.0265,0.0263,0.0263,0.0249,0.0246,0.0281,0.0281,0.0281,0,0,0.0012,0.0011,-0.0003,0.0009,0.0031,0.0051,0.0075,0.0098,0.0117,0.0153,0.0187,0.0209,0.023,0.0248,0.0256,0.0258,0.0263,0.0261,0.0259,0.0261,0.0247,0.0244,0.0241,0.028,0.028,0.028,0,0,-0.0005,-0.0018,-0.0034,-0.0013,0.0017,0.004,0.0045,0.0088,0.011,0.0143,0.0168,0.019,0.0222,0.024,0.0249,0.0242,0.0255,0.0237,0.0224,0.021,0.0207,0.0204,0.0239,0.024,0.0231,0.0231,0.0231,0,-0.0011,-0.0027,-0.0026,-0.0018,0.0002,0.0033,0.005,0.0071,0.0122,0.0139,0.0152,0.0198,0.0219,0.0235,0.0232,0.0239,0.0243,0.0237,0.0207,0.0205,0.0203,0.0239,0.024,0.023,0.023,0.023,0.023,0,-0.003,-0.0031,-0.0033,-0.0024,-0.0002,0.0015,0.005,0.0071,0.0097,0.0124,0.0154,0.0184,0.0213,0.0211,0.0223,0.0212,0.0228,0.0211,0.0217,0.0199,0.0238,0.0239,0.0229,0.0229,0.023,0.023,0,0,-0.0065,-0.0052,-0.0052,-0.0036,-0.0001,0.0017,0.004,0.0075,0.0093,0.0127,0.0153,0.0176,0.0192,0.0202,0.0214,0.0197,0.0197,0.0191,0.0191,0.0232,0.0195,0.0224,0.0228,0.0164,0.0164,0.0163,0.024,0,-0.007,-0.007,-0.0055,-0.003,-0.0015,0.0021,0.0046,0.0079,0.0106,0.0138,0.0155,0.0188,0.0187,0.0204,0.0185,0.0196,0.0194,0.018,0.0202,0.0204,0.0234,0.0227,0.0161,0.0241,0.0242,0.0242,0.0242,0,-0.0087,-0.008,-0.0071,-0.0024,-0.0013,0.0011,0.0054,0.0085,0.0124,0.0149,0.017,0.0189,0.0201,0.0189,0.0195,0.0182,0.0187,0.0189,0.0191,0.0219,0.0232,0.0256,0.0244,0.0244,0.0244,0.0244,0.0244,0,-0.0116,-0.0085,-0.0081,-0.0068,-0.0018,0.0006,0.0044,0.0088,0.0117,0.0161,0.0183,0.0196,0.0222,0.0204,0.0218,0.02,0.0221,0.0202,0.0241,0.0246,0.0204,0.0205,0.0195,0.0195,0.0195,0.0195,0.0195,0,-0.0129,-0.012,-0.0092,-0.0087,-0.0053,-0.0004,0.0038,0.0076,0.0128,0.0159,0.019,0.0208,0.0216,0.0232,0.0226,0.0252,0.0234,0.0248,0.0257,0.0202,0.0202,0.0207,0.0207,0.0198,0.0197,0.0197,0.0196,0,-0.0157,-0.0149,-0.0132,-0.0087,-0.0068,-0.0038,0.0041,0.0069,0.0126,0.0165,0.0181,0.0226,0.0255,0.0277,0.028,0.0284,0.0292,0.0305,0.0289,0.0295,0.0331,0.033,0.0361,0.0362,0.0363,0.0364,0.0365,0,-0.0168,-0.0174,-0.0145,-0.0125,-0.0098,-0.0046,-0.001,0.0059,0.0091,0.0165,0.0177,0.0233,0.0259,0.0318,0.0318,0.0354,0.0341,0.037,0.0307,0.0337,0.0343,0.034,0.0337,0.0367,0.0367,0.0368,0.0368,0,-0.018,-0.0186,-0.017,-0.0137,-0.0102,-0.0062,-0.0003,0.002,0.0097,0.0126,0.0195,0.0242,0.0293,0.0325,0.0377,0.0378,0.0358,0.0382,0.0379,0.0319,0.0345,0.0349,0.0345,0.0372,0.0372,0.0371,0.0371,0,-0.0187,-0.0178,-0.0166,-0.0128,-0.0096,-0.0059,-0.003,0.0032,0.0078,0.016,0.0169,0.0239,0.0278,0.0338,0.0359,0.0398,0.0386,0.0381,0.0377,0.0373,0.0339,0.0371,0.0419,0,0,0,0,0,-0.0182,-0.0171,-0.0147,-0.0101,-0.0076,-0.005,-0.0014,0.0013,0.0063,0.0114,0.0157,0.0206,0.0288,0.0314,0.0358,0.0353,0.0375,0.0403,0.0362,0.0395,0.039,0.0349,0,0,0,0,0,0,-0.0177,-0.0162,-0.0146,-0.0089,-0.0052,-0.0014,0.001,0.0038,0.0079,0.0125,0.0167,0.0211,0.0279,0.0267,0.0358,0.0369,0.0347,0.0442,0.0443,0.0398,0.0393,0.039,0.0346,0,0,0,0,0]},{"header":{"parameterUnit":"m.s-1","parameterCategory":2,"la1":30.2991,"la2":30.254,"lo1":-89.0895,"lo2":-89.0444,"dy":0.0017,"dx":0.0017,"nx":28,"ny":28,"refTime":"2023-04-25T21:00:00:Z","depth":"4","parameterNumber":3,"parameterNumberName":"V-component_of_CURRENTS"},"data":[0,0,0,0,0,0,0,0,0,0,0,0,0,0,0,0,0,0,0,0,0,0,0,0,0,0,0,0,0,0,0,0,0,0,0,0,0,0,0,0,0,0,0,0,0,0,0,0,0,0,0,0,0,0,0,0,0,0,-0.0163,-0.0164,0,-0.0202,-0.0203,-0.0203,-0.0296,-0.0299,-0.0301,-0.0303,-0.0535,-0.0539,-0.0543,0,0,0,0,0,0,0,0,0,0,0,0,0,-0.015,-0.0149,-0.0163,-0.0164,-0.0164,-0.0202,-0.0203,-0.0203,-0.0296,-0.0299,-0.0301,-0.0304,-0.0534,-0.0539,-0.0544,0,0,0,0,0,0,0,0,0,0,0,0,0,-0.0166,-0.0149,-0.0163,-0.0217,-0.0223,-0.0202,-0.0203,-0.0203,-0.0295,-0.0299,-0.0302,-0.0305,-0.0532,-0.0538,-0.0544,-0.0517,0,0,-0.0563,-0.0566,0,0,0,0,0,0,0,0,-0.0165,-0.0166,-0.0209,-0.0214,-0.022,-0.025,-0.0283,-0.0319,-0.0295,-0.0265,-0.0303,-0.0307,-0.0457,-0.0469,-0.0463,-0.0528,-0.0538,-0.0564,-0.0568,-0.057,-0.0572,0,0,0,0,0,0,0,-0.0164,-0.0165,-0.0176,-0.0209,-0.0216,-0.0233,-0.0239,-0.0289,-0.0344,-0.0268,-0.0276,-0.0283,-0.0461,-0.0457,-0.047,-0.0542,-0.0564,-0.0569,-0.0573,-0.0575,-0.0697,-0.0696,0,0,0,0,0,0,-0.0161,-0.0164,-0.0175,-0.0178,-0.0203,-0.0231,-0.0238,-0.0235,-0.0339,-0.0358,-0.028,-0.0287,-0.0444,-0.0463,-0.0479,-0.0551,-0.057,-0.0576,-0.058,-0.0697,-0.0696,-0.0696,0,0,0,0,0,0,-0.016,-0.0161,-0.0173,-0.0174,-0.0178,-0.0228,-0.0224,-0.0234,-0.0255,-0.0347,-0.0369,-0.0295,-0.0448,-0.047,-0.0525,-0.0558,-0.0579,-0.0585,-0.0698,-0.0697,-0.0696,-0.0634,0,0,0,0,0,0,-0.016,-0.016,-0.0154,-0.0174,-0.0178,-0.0177,-0.0222,-0.0233,-0.0254,-0.0264,-0.0366,-0.0389,-0.0452,-0.0515,-0.0531,-0.0567,-0.0589,-0.0698,-0.0697,-0.0696,-0.0637,-0.0631,-0.0626,0,0,0,0,0,-0.0159,-0.0141,-0.0153,-0.0155,-0.0168,-0.0176,-0.018,-0.0225,-0.0252,-0.0256,-0.0313,-0.0387,-0.0522,-0.0518,-0.0538,-0.0576,-0.0699,-0.0698,-0.0697,-0.0639,-0.0632,-0.0626,0,0,0,0,0,0,-0.014,-0.0149,-0.0164,-0.0152,-0.017,-0.0194,-0.0196,-0.0222,-0.0262,-0.0281,-0.0366,-0.0392,-0.0453,-0.0507,-0.0501,-0.0605,-0.0629,-0.0631,-0.0578,-0.0573,-0.0568,-0.0582,-0.0595,0,0,0,0,0,-0.0127,-0.0113,-0.0135,-0.0126,-0.0132,-0.016,-0.0168,-0.0199,-0.0236,-0.0257,-0.0325,-0.0397,-0.0453,-0.0507,-0.0557,-0.0608,-0.0628,-0.0648,-0.0643,-0.0639,-0.0661,-0.0678,-0.0677,-0.0692,-0.0692,-0.0692,0,0,-0.0114,-0.012,-0.0112,-0.012,-0.0134,-0.0143,-0.0174,-0.0187,-0.0209,-0.0277,-0.0326,-0.0373,-0.0455,-0.051,-0.0547,-0.0572,-0.0636,-0.0637,-0.0633,-0.0659,-0.0677,-0.0676,-0.0675,-0.0691,-0.0691,-0.0692,0,0,-0.0095,-0.0089,-0.008,-0.0089,-0.0112,-0.0128,-0.0133,-0.0164,-0.0195,-0.0233,-0.0285,-0.0334,-0.0436,-0.0488,-0.0531,-0.0524,-0.0592,-0.0562,-0.0575,-0.059,-0.0589,-0.0589,-0.0571,-0.057,-0.0579,-0.0579,-0.0579,0,-0.0095,-0.0079,-0.008,-0.0084,-0.0095,-0.0122,-0.0132,-0.0151,-0.02,-0.0231,-0.0255,-0.0368,-0.0425,-0.0496,-0.0503,-0.0517,-0.0532,-0.0592,-0.0583,-0.0584,-0.0585,-0.0567,-0.0567,-0.0576,-0.0576,-0.0577,-0.0577,0,-0.0077,-0.0068,-0.0062,-0.0075,-0.0083,-0.0089,-0.0121,-0.0142,-0.0182,-0.0222,-0.0292,-0.0341,-0.0429,-0.0445,-0.0485,-0.0531,-0.0538,-0.0555,-0.0598,-0.0579,-0.0562,-0.0562,-0.0571,-0.0573,-0.0573,-0.0574,0,0,-0.0092,-0.0058,-0.0064,-0.0062,-0.0082,-0.0088,-0.0114,-0.0157,-0.0191,-0.0244,-0.0299,-0.0372,-0.0416,-0.0465,-0.0508,-0.053,-0.0522,-0.0562,-0.0564,-0.0543,-0.0544,-0.0511,-0.0508,-0.055,-0.0551,-0.0551,-0.0514,0,-0.0097,-0.0078,-0.0072,-0.0073,-0.0067,-0.0093,-0.0115,-0.0157,-0.0207,-0.0261,-0.0323,-0.039,-0.0421,-0.0468,-0.0493,-0.0522,-0.053,-0.053,-0.0569,-0.057,-0.0542,-0.051,-0.0554,-0.0514,-0.0515,-0.0515,-0.0515,0,-0.0106,-0.0086,-0.0074,-0.0065,-0.007,-0.0085,-0.0132,-0.0158,-0.0232,-0.0277,-0.0355,-0.041,-0.0469,-0.0484,-0.0528,-0.0536,-0.0547,-0.0551,-0.055,-0.0553,-0.054,-0.0549,-0.0517,-0.0516,-0.0516,-0.0516,-0.0516,0,-0.0117,-0.0099,-0.0084,-0.0082,-0.0077,-0.0098,-0.0118,-0.0178,-0.0207,-0.0299,-0.0332,-0.0419,-0.0454,-0.0495,-0.052,-0.054,-0.0537,-0.0558,-0.0525,-0.0521,-0.0591,-0.0592,-0.0575,-0.0575,-0.0575,-0.0576,-0.0576,0,-0.0126,-0.012,-0.0088,-0.0081,-0.0095,-0.0099,-0.0143,-0.0179,-0.023,-0.0269,-0.0349,-0.0382,-0.0464,-0.0481,-0.0511,-0.0511,-0.0529,-0.0524,-0.0517,-0.0558,-0.0556,-0.0588,-0.059,-0.0574,-0.0574,-0.0575,-0.0575,0,-0.0144,-0.0117,-0.0103,-0.0091,-0.0096,-0.0115,-0.0147,-0.0179,-0.0217,-0.0264,-0.0294,-0.0355,-0.0384,-0.0423,-0.0463,-0.0478,-0.049,-0.0479,-0.0489,-0.0482,-0.0464,-0.0463,-0.0455,-0.0453,-0.0452,-0.0451,-0.0451,0,-0.0145,-0.0131,-0.0115,-0.0121,-0.0124,-0.0145,-0.0169,-0.0194,-0.0219,-0.0241,-0.026,-0.0291,-0.0337,-0.0338,-0.0395,-0.0423,-0.0433,-0.043,-0.0488,-0.0462,-0.0456,-0.0457,-0.0457,-0.0449,-0.0448,-0.0448,-0.0448,0,-0.0147,-0.0145,-0.0134,-0.0141,-0.0161,-0.0175,-0.0199,-0.0203,-0.0225,-0.024,-0.0236,-0.0263,-0.0275,-0.0322,-0.033,-0.036,-0.0438,-0.0419,-0.0423,-0.0477,-0.0455,-0.045,-0.0452,-0.0444,-0.0445,-0.0445,-0.0445,0,-0.0158,-0.0165,-0.015,-0.0167,-0.0183,-0.0198,-0.0208,-0.0212,-0.0219,-0.0221,-0.0214,-0.0235,-0.0256,-0.0285,-0.0298,-0.032,-0.0347,-0.0369,-0.0376,-0.0381,-0.0383,-0.0345,-0.0292,0,0,0,0,0,-0.0164,-0.0171,-0.0178,-0.0187,-0.0203,-0.0213,-0.0224,-0.0227,-0.0222,-0.0215,-0.0209,-0.0221,-0.0245,-0.0258,-0.0274,-0.0301,-0.0363,-0.0323,-0.0395,-0.0423,-0.0427,-0.0441,0,0,0,0,0,0,-0.0166,-0.0169,-0.0175,-0.0193,-0.021,-0.0227,-0.0234,-0.0233,-0.0221,-0.0213,-0.0222,-0.0224,-0.0248,-0.0231,-0.0273,-0.0281,-0.0329,-0.0335,-0.0335,-0.042,-0.0424,-0.0428,-0.0444,0,0,0,0,0]}]]